{"data":{"norad_id":60041,"epoch":"2026-05-24T23:54:24.914880Z","epoch_age_seconds":74642,"freshness":"FRESH","line1":"1 60041U 24112D   26144.99612170  .00001626  00000+0  18266-4 0  9994","line2":"2 60041  53.1589 250.2649 0000827  79.7858 280.3253 15.69714340112965","mean_motion":15.6971434,"eccentricity":8.27e-5,"inclination_deg":53.1589,"raan_deg":250.2649,"arg_perigee_deg":79.7858,"mean_anomaly_deg":280.3253,"bstar":1.8266e-5,"rev_number":11296,"period_min":91.736436579919,"perigee_km":359.15711072458,"apogee_km":360.27155133474,"semimajor_km":6737.8513310297,"source":"CELESTRAK","updated_at":"2026-05-25T13:38:19.152525Z"}}